DW8397 Weather Reports


time (UTC)temp
C
wind
direction
speed
KPH
gust
KPH
rain 1hr
cm
rain 24hr
cm
rain mn
cm
humidity
%
barometer
mb
20260902054543 13 174 0.0 0.0 0.00 0.81 0.00 88 1019.3
20260902053041 13 174 0.0 0.0 0.00 0.81 0.00 88 1019.2
20260902051539 13 174 0.0 0.0 0.00 0.81 0.00 88 1019.0
20260902050037 13 174 0.0 0.0 0.00 0.81 0.00 88 1018.8
20260902044536 13 174 0.0 0.0 0.03 0.81 0.00 88 1018.4
20260902043041 13 174 0.0 0.0 0.03 0.81 0.00 88 1018.2
20260902041535 13 174 0.0 0.0 0.03 0.81 0.00 88 1018.2
20260902040033 13 174 0.0 0.0 0.03 0.81 0.00 88 1018.3
20260902034532 13 174 0.0 4.8 0.00 0.79 0.79 88 1017.9
20260902033032 13 158 0.0 0.0 0.00 0.79 0.79 88 1017.9
20260902031532 13 167 0.0 0.0 0.00 0.79 0.79 88 1018.1
20260902030030 13 174 0.0 0.0 0.00 0.79 0.79 88 1018.2
20260902024528 14 173 0.0 4.8 0.00 0.79 0.79 88 1018.2
20260902023039 14 180 1.6 8.0 0.00 0.79 0.79 88 1018.1
20260902021538 14 178 0.0 8.0 0.00 0.79 0.79 88 1017.9
20260902020024 15 173 0.0 0.0 0.00 0.79 0.79 88 1017.7
20260902014524 15 171 0.0 0.0 0.00 0.79 0.79 88 1017.3
20260902013023 15 145 0.0 0.0 0.00 0.79 0.79 88 1017.5
20260902011522 15 97 0.0 0.0 0.00 0.79 0.79 88 1017.6
20260902010021 15 275 0.0 0.0 0.00 0.79 0.79 88 1017.5
20260902004520 15 275 0.0 0.0 0.00 0.79 0.79 88 1017.5
20260902003019 15 185 0.0 0.0 0.00 0.79 0.79 88 1017.3
20260902001517 15 172 0.0 0.0 0.00 0.79 0.79 88 1017.1
20260902000016 15 360 0.0 0.0 0.00 0.79 0.79 88 1016.8
20260901234513 15 173 0.0 0.0 0.00 0.79 0.79 88 1016.7
20260901233013 15 184 0.0 0.0 0.00 0.79 0.79 88 1016.7
20260901231513 15 181 0.0 0.0 0.00 0.79 0.79 88 1016.7
20260901230013 15 281 0.0 0.0 0.00 0.79 0.79 88 1016.5
20260901224512 15 169 0.0 0.0 0.00 0.79 0.79 88 1016.6
20260901223017 15 226 0.0 0.0 0.00 0.79 0.79 88 1016.5
20260901221510 16 233 0.0 0.0 0.00 0.79 0.79 88 1016.6
20260901220015 16 200 0.0 0.0 0.00 0.79 0.79 88 1016.5
20260901214509 16 207 0.0 0.0 0.00 0.79 0.79 88 1016.3
20260901213019 15 179 0.0 0.0 0.00 0.79 0.79 88 1016.2
20260901211511 15 214 0.0 0.0 0.00 0.79 0.79 88 1016.1
20260901210008 16 177 0.0 0.0 0.00 0.79 0.79 88 1016.1
20260901204507 16 178 0.0 0.0 0.00 0.79 0.79 88 1016.1
20260901203026 16 277 0.0 0.0 0.00 0.79 0.79 88 1015.9
20260901201507 16 217 0.0 3.2 0.00 0.79 0.79 88 1015.9
20260901200006 16 243 0.0 12.9 0.00 0.79 0.79 88 1015.7
20260901194505 16 158 0.0 4.8 0.00 0.79 0.79 88 1015.5
20260901193005 16 192 0.0 0.0 0.00 0.79 0.79 88 1015.6
20260901191504 15 255 0.0 0.0 0.00 0.79 0.79 88 1015.7
20260901190007 15 297 0.0 3.2 0.00 0.79 0.79 87 1015.8
20260901184505 15 30 0.0 3.2 0.00 0.79 0.79 87 1015.8
20260901183002 15 234 0.0 3.2 0.03 0.79 0.79 87 1015.8
20260901181501 15 200 0.0 0.0 0.03 0.79 0.79 88 1015.8
20260901180002 15 182 0.0 0.0 0.03 0.79 0.79 88 1015.5
20260901174602 15 180 0.0 0.0 0.03 0.79 0.79 88 1015.6
20260901173104 15 262 0.0 0.0 0.03 0.79 0.79 88 1015.5
20260901171559 14 254 0.0 1.6 0.00 0.76 0.76 88 1015.6
20260901170107 14 300 0.0 0.0 0.00 0.76 0.76 88 1015.6
20260901164613 14 248 0.0 0.0 0.03 0.76 0.76 88 1015.7
20260901163058 14 173 0.0 1.6 0.05 0.76 0.76 88 1015.6
20260901161559 14 109 0.0 16.1 0.05 0.76 0.76 88 1015.2
20260901160058 14 22 0.0 9.7 0.05 0.76 0.76 88 1015.0
20260901154553 14 34 0.0 6.4 0.05 0.71 0.71 88 1015.2
20260901153049 14 186 0.0 0.0 0.03 0.71 0.71 88 1015.1
20260901151650 14 109 0.0 0.0 0.03 0.71 0.71 88 1015.4
20260901150048 14 244 0.0 4.8 0.03 0.71 0.71 88 1015.6
20260901144548 14 273 0.0 0.0 0.00 0.69 0.69 88 1015.4
20260901143048 14 23 0.0 6.4 0.00 0.69 0.69 88 1015.1
20260901141546 14 266 0.0 0.0 0.00 0.69 0.69 88 1015.1
20260901140053 14 169 0.0 0.0 0.00 0.69 0.69 88 1015.2
20260901134604 14 159 0.0 0.0 0.00 0.69 0.69 88 1015.3
20260901133049 15 198 0.0 0.0 0.00 0.69 0.69 88 1015.5
20260901131543 15 198 0.0 0.0 0.00 0.69 0.69 88 1015.7
20260901130044 15 12 0.0 0.0 0.00 0.69 0.69 88 1015.6
20260901124539 15 284 0.0 0.0 0.03 0.69 0.69 88 1015.7
20260901123036 15 316 0.0 0.0 0.08 0.69 0.69 88 1015.8
20260901121533 15 351 0.0 0.0 0.20 0.69 0.69 88 1015.8
20260901120047 15 351 0.0 0.0 0.38 0.69 0.69 88 1015.9
20260901114530 15 355 0.0 0.0 0.48 0.66 0.66 89 1015.8
20260901113032 15 351 0.0 0.0 0.51 0.61 0.61 89 1015.8
20260901111526 16 28 0.0 0.0 0.43 0.46 0.46 89 1015.5
20260901110024 16 360 0.0 0.0 0.30 0.30 0.30 89 1015.9
20260901104525 16 360 0.0 0.0 0.18 0.18 0.18 89 1016.1
20260901103027 16 360 0.0 0.0 0.10 0.10 0.10 89 1015.7
20260901101521 16 360 0.0 0.0 0.03 0.03 0.03 89 1015.7
20260901100022 16 319 0.0 0.0 0.00 0.00 0.00 89 1015.4
20260901094527 16 319 0.0 0.0 0.00 0.00 0.00 89 1015.1
20260901093019 16 319 0.0 0.0 0.00 0.00 0.00 89 1014.9
20260901091517 16 319 0.0 0.0 0.00 0.00 0.00 89 1015.0
20260901090016 16 319 0.0 0.0 0.00 0.00 0.00 89 1015.2
20260901084516 16 319 0.0 0.0 0.00 0.00 0.00 89 1015.4
20260901083015 16 319 0.0 0.0 0.00 0.00 0.00 89 1015.3
20260901081514 16 319 0.0 0.0 0.00 0.00 0.00 88 1015.5
20260901080013 16 320 0.0 0.0 0.00 0.00 0.00 89 1015.4
20260901074513 16 317 0.0 0.0 0.00 0.00 0.00 89 1015.3
20260901073014 16 317 0.0 0.0 0.00 0.00 0.00 89 1015.5
20260901071520 16 317 0.0 0.0 0.00 0.00 0.00 88 1015.4
20260901070019 16 317 0.0 0.0 0.00 0.00 0.00 88 1015.6
20260901064507 17 317 0.0 0.0 0.00 0.00 0.00 88 1015.8
20260901063006 17 317 0.0 0.0 0.00 0.00 0.00 88 1016.1
20260901061505 17 317 0.0 0.0 0.00 0.00 0.00 88 1016.0
20260901060003 17 317 0.0 0.0 0.00 0.00 0.00 88 1016.1